[[{"header":{"parameterUnit":"m.s-1","parameterCategory":1,"la1":30.2991,"la2":30.254,"lo1":-89.0895,"lo2":-89.0444,"dy":0.0017,"dx":0.0017,"nx":28,"ny":28,"refTime":"2024-03-11T09:00:00:Z","depth":0,"parameterNumber":2,"parameterNumberName":"U-component_of_WINDS"},"data":[0,0,0,0,0,0,0,0,0,0,0,0,0,0,0,0,0,0,0,0,0,0,0,0,0,0,0,0,0,0,0,0,0,0,0,0,0,0,0,0,0,0,0,0,0,0,0,0,0,0,0,0,0,0,0,0,0,0,-1.441,-1.441,0,-1.4418,-1.4418,-1.4419,-1.4351,-1.4349,-1.4347,-1.4345,-1.4357,-1.4359,-1.4361,0,0,0,0,0,0,0,0,0,0,0,0,0,-1.4337,-1.4339,-1.441,-1.441,-1.441,-1.4418,-1.4418,-1.4419,-1.4351,-1.4349,-1.4347,-1.4344,-1.4356,-1.4358,-1.4361,0,0,0,0,0,0,0,0,0,0,0,0,0,-1.436,-1.4339,-1.441,-1.4378,-1.4375,-1.4418,-1.4418,-1.4419,-1.4352,-1.4349,-1.4346,-1.4343,-1.4355,-1.4358,-1.4361,-1.4437,0,0,-1.4371,-1.4372,0,0,0,0,0,0,0,0,-1.4358,-1.4362,-1.4382,-1.438,-1.4377,-1.4381,-1.4397,-1.4425,-1.4352,-1.4361,-1.4345,-1.4342,-1.4367,-1.4369,-1.4377,-1.4438,-1.4438,-1.4371,-1.4373,-1.4374,-1.4375,0,0,0,0,0,0,0,-1.4357,-1.4362,-1.4413,-1.4383,-1.4379,-1.4363,-1.4363,-1.4402,-1.438,-1.436,-1.4355,-1.4356,-1.4365,-1.4374,-1.4377,-1.4439,-1.4371,-1.4374,-1.4376,-1.4377,-1.456,-1.4563,0,0,0,0,0,0,-1.4359,-1.4361,-1.4413,-1.4414,-1.436,-1.4367,-1.4367,-1.4382,-1.4379,-1.4376,-1.4359,-1.4353,-1.437,-1.4373,-1.4377,-1.4465,-1.4374,-1.4377,-1.4379,-1.4557,-1.4561,-1.4564,0,0,0,0,0,0,-1.4358,-1.4365,-1.4413,-1.4386,-1.4391,-1.4371,-1.4389,-1.4384,-1.4393,-1.4379,-1.4374,-1.4372,-1.4368,-1.4373,-1.4422,-1.4464,-1.4379,-1.4381,-1.4554,-1.4559,-1.4563,-1.4642,0,0,0,0,0,0,-1.4356,-1.4365,-1.4393,-1.4387,-1.4392,-1.4458,-1.4392,-1.4386,-1.4398,-1.4391,-1.439,-1.4387,-1.4366,-1.4418,-1.4425,-1.4467,-1.4384,-1.455,-1.4556,-1.4561,-1.4636,-1.4649,-1.466,0,0,0,0,0,-1.4354,-1.4417,-1.4395,-1.4402,-1.4428,-1.4461,-1.4464,-1.4438,-1.4402,-1.443,-1.4421,-1.4387,-1.4458,-1.4424,-1.4431,-1.4475,-1.4547,-1.4554,-1.4561,-1.463,-1.4646,-1.466,0,0,0,0,0,0,-1.443,-1.4415,-1.4391,-1.4454,-1.4459,-1.4449,-1.4485,-1.4456,-1.4472,-1.4465,-1.4432,-1.4433,-1.4488,-1.4486,-1.4448,-1.4547,-1.4497,-1.4505,-1.4547,-1.4562,-1.4574,-1.4574,-1.4386,0,0,0,0,0,-1.4454,-1.4481,-1.4467,-1.4523,-1.4527,-1.4505,-1.4519,-1.4498,-1.4502,-1.4505,-1.4499,-1.4505,-1.4528,-1.4545,-1.4566,-1.4635,-1.4633,-1.4668,-1.468,-1.469,-1.4699,-1.4734,-1.4749,-1.4587,-1.4587,-1.4586,0,0,-1.4504,-1.4499,-1.4519,-1.4538,-1.454,-1.4569,-1.4508,-1.4542,-1.4563,-1.451,-1.4556,-1.4552,-1.4557,-1.4616,-1.4642,-1.4616,-1.4743,-1.4699,-1.4707,-1.471,-1.4742,-1.4758,-1.4771,-1.4591,-1.459,-1.459,0,0,-1.461,-1.4609,-1.4655,-1.4657,-1.466,-1.4645,-1.4656,-1.465,-1.4645,-1.469,-1.465,-1.4675,-1.4717,-1.4721,-1.4729,-1.4834,-1.4803,-1.4841,-1.4906,-1.494,-1.4953,-1.4964,-1.5002,-1.5015,-1.4849,-1.485,-1.485,0,-1.4673,-1.4715,-1.4683,-1.4719,-1.4729,-1.468,-1.4726,-1.473,-1.474,-1.4747,-1.4718,-1.4767,-1.4767,-1.4826,-1.4852,-1.486,-1.4871,-1.4842,-1.4954,-1.4965,-1.4975,-1.501,-1.5024,-1.4854,-1.4854,-1.4853,-1.4853,0,-1.4791,-1.482,-1.4857,-1.4866,-1.4879,-1.4921,-1.4895,-1.4913,-1.489,-1.4878,-1.4924,-1.4922,-1.4941,-1.4953,-1.4932,-1.5009,-1.4993,-1.4959,-1.4908,-1.4995,-1.5028,-1.5041,-1.4861,-1.4859,-1.4858,-1.4857,0,0,-1.4948,-1.4936,-1.4951,-1.4953,-1.4951,-1.4973,-1.5011,-1.5028,-1.5044,-1.5051,-1.5083,-1.5118,-1.5086,-1.5094,-1.5073,-1.5104,-1.5186,-1.5066,-1.5065,-1.5088,-1.527,-1.5296,-1.5312,-1.5165,-1.5167,-1.5169,-1.527,0,-1.5051,-1.5115,-1.5087,-1.5154,-1.5181,-1.5133,-1.5166,-1.5169,-1.5158,-1.5179,-1.5167,-1.5192,-1.5148,-1.5153,-1.5181,-1.517,-1.5222,-1.5162,-1.5195,-1.5196,-1.5196,-1.5329,-1.5357,-1.5452,-1.5282,-1.5284,-1.5286,0,-1.5181,-1.5192,-1.5262,-1.5252,-1.5262,-1.5293,-1.5305,-1.5326,-1.5327,-1.5316,-1.5325,-1.5296,-1.5333,-1.5281,-1.5331,-1.5291,-1.5302,-1.5299,-1.5302,-1.5305,-1.5247,-1.5336,-1.5481,-1.5496,-1.5306,-1.5304,-1.5303,0,-1.5289,-1.5321,-1.5366,-1.537,-1.536,-1.5382,-1.538,-1.5378,-1.5389,-1.54,-1.5407,-1.5422,-1.5431,-1.5444,-1.542,-1.5384,-1.5474,-1.5419,-1.5467,-1.5467,-1.5489,-1.5488,-1.5639,-1.5495,-1.5495,-1.5495,-1.5494,0,-1.5408,-1.5452,-1.5414,-1.5442,-1.549,-1.5456,-1.5505,-1.5497,-1.5495,-1.5521,-1.5481,-1.5506,-1.5472,-1.5494,-1.5475,-1.552,-1.5524,-1.5517,-1.5512,-1.5521,-1.5522,-1.5529,-1.5522,-1.5498,-1.5497,-1.5497,-1.5496,0,-1.5537,-1.5513,-1.5559,-1.5545,-1.5542,-1.5578,-1.5567,-1.5592,-1.5577,-1.561,-1.5616,-1.5593,-1.5617,-1.5593,-1.5616,-1.5603,-1.5663,-1.5648,-1.5662,-1.5658,-1.5707,-1.5703,-1.5868,-1.5888,-1.5731,-1.5732,-1.5734,0,-1.5615,-1.5647,-1.5636,-1.565,-1.5649,-1.5672,-1.5682,-1.565,-1.5663,-1.5665,-1.569,-1.5709,-1.5723,-1.5763,-1.5749,-1.5766,-1.5751,-1.5808,-1.5754,-1.5761,-1.5752,-1.5751,-1.5754,-1.5819,-1.5821,-1.5823,-1.5824,0,-1.5756,-1.5741,-1.5758,-1.577,-1.5783,-1.5791,-1.5796,-1.581,-1.5776,-1.5792,-1.5815,-1.5826,-1.5847,-1.5867,-1.5879,-1.5876,-1.5845,-1.5841,-1.5852,-1.5863,-1.587,-1.5867,-1.5693,-1.5837,-1.5836,-1.5835,-1.5834,-1.5834,-1.5862,-1.5888,-1.5883,-1.5903,-1.5902,-1.5907,-1.593,-1.5917,-1.5935,-1.5949,-1.5928,-1.5956,-1.5955,-1.5967,-1.5968,-1.599,-1.5966,-1.5983,-1.5988,-1.5993,-1.6,-1.5866,-1.5992,-1.5991,-1.5991,-1.5991,-1.599,0,-1.6001,-1.5994,-1.6012,-1.6019,-1.6034,-1.6001,-1.6004,-1.6019,-1.6044,-1.6044,-1.6058,-1.6083,-1.6102,-1.6088,-1.6104,-1.6124,-1.6109,-1.6129,-1.6128,-1.6127,-1.602,-1.6008,-1.614,-1.614,-1.614,-1.614,-1.614,-1.614,-1.6075,-1.6117,-1.6102,-1.6143,-1.6137,-1.6163,-1.6167,-1.6172,-1.6172,-1.6201,-1.6216,-1.6206,-1.6201,-1.6215,-1.6231,-1.6226,-1.6234,-1.6259,-1.6249,-1.615,-1.6135,-1.6121,-1.611,-1.6261,-1.6261,-1.6355,-1.6356,-1.6356]},{"header":{"parameterUnit":"m.s-1","parameterCategory":1,"la1":30.2991,"la2":30.254,"lo1":-89.0895,"lo2":-89.0444,"dy":0.0017,"dx":0.0017,"nx":28,"ny":28,"refTime":"2024-03-11T09:00:00:Z","depth":0,"parameterNumber":3,"parameterNumberName":"V-component_of_WINDS"},"data":[0,0,0,0,0,0,0,0,0,0,0,0,0,0,0,0,0,0,0,0,0,0,0,0,0,0,0,0,0,0,0,0,0,0,0,0,0,0,0,0,0,0,0,0,0,0,0,0,0,0,0,0,0,0,0,0,0,0,0.7649,0.7647,0,0.75,0.7499,0.7497,0.7432,0.7433,0.7433,0.7433,0.7274,0.727,0.7266,0,0,0,0,0,0,0,0,0,0,0,0,0,0.7871,0.7867,0.7649,0.7647,0.7645,0.7501,0.7499,0.7497,0.7432,0.7433,0.7433,0.7433,0.7276,0.727,0.7265,0,0,0,0,0,0,0,0,0,0,0,0,0,0.7754,0.7866,0.7649,0.7596,0.759,0.7501,0.7499,0.7496,0.7432,0.7433,0.7433,0.7433,0.7277,0.7271,0.7264,0.7216,0,0,0.7244,0.7241,0,0,0,0,0,0,0,0,0.776,0.7745,0.7606,0.76,0.7592,0.7486,0.7519,0.7402,0.7432,0.7492,0.7433,0.7434,0.7344,0.7332,0.7303,0.7208,0.7201,0.7243,0.7239,0.7236,0.7234,0,0,0,0,0,0,0,0.7769,0.7751,0.759,0.7604,0.7596,0.7578,0.7561,0.7496,0.7417,0.7487,0.7482,0.7465,0.734,0.7309,0.7299,0.7199,0.7244,0.7238,0.7233,0.7231,0.7057,0.7056,0,0,0,0,0,0,0.7786,0.7759,0.7595,0.7586,0.7679,0.7573,0.7555,0.7519,0.7418,0.7403,0.7465,0.7463,0.7321,0.7306,0.7293,0.7229,0.7236,0.723,0.7226,0.7057,0.7056,0.7056,0,0,0,0,0,0,0.7791,0.7772,0.7601,0.7671,0.7648,0.7569,0.7529,0.7516,0.7485,0.7402,0.7387,0.7449,0.732,0.7302,0.7236,0.7222,0.7227,0.7221,0.7058,0.7057,0.7056,0.7101,0,0,0,0,0,0,0.7798,0.7775,0.7757,0.7671,0.7644,0.7548,0.7529,0.7513,0.7475,0.747,0.7382,0.7368,0.7319,0.7246,0.7229,0.7213,0.7216,0.7059,0.7057,0.7056,0.71,0.7101,0.7103,0,0,0,0,0,0.7806,0.7773,0.7756,0.7737,0.762,0.7548,0.7532,0.7479,0.7474,0.7454,0.7401,0.7371,0.7227,0.724,0.722,0.7202,0.7059,0.7058,0.7056,0.7099,0.7101,0.7103,0,0,0,0,0,0,0.7857,0.7761,0.7741,0.768,0.7623,0.7537,0.751,0.7482,0.7423,0.7421,0.7355,0.7336,0.7275,0.7232,0.7248,0.7149,0.714,0.7135,0.718,0.7181,0.7182,0.7193,0.721,0,0,0,0,0,0.7862,0.7813,0.7731,0.7685,0.7657,0.7589,0.7555,0.752,0.7457,0.7431,0.7373,0.7311,0.7252,0.7214,0.7155,0.7094,0.7073,0.7072,0.7073,0.7074,0.707,0.7034,0.7032,0.7051,0.7051,0.7051,0,0,0.7869,0.7811,0.7784,0.7694,0.7645,0.7594,0.7569,0.7516,0.7476,0.7422,0.7357,0.7312,0.7238,0.7175,0.7143,0.7136,0.7061,0.7073,0.7075,0.7069,0.7033,0.7031,0.7029,0.705,0.705,0.7051,0,0,0.7858,0.7809,0.7766,0.7718,0.7646,0.7601,0.7591,0.751,0.7478,0.7412,0.7371,0.7322,0.7222,0.7171,0.7132,0.7103,0.7073,0.7086,0.7092,0.7058,0.7056,0.7054,0.7043,0.704,0.7082,0.7082,0.7082,0,0.7876,0.7799,0.7746,0.7696,0.7657,0.7609,0.7563,0.7519,0.743,0.7403,0.7398,0.7271,0.7218,0.7142,0.7136,0.7106,0.7091,0.7095,0.7061,0.7059,0.7056,0.7045,0.7041,0.7084,0.7084,0.7084,0.7083,0,0.7825,0.7773,0.7746,0.7664,0.7622,0.7574,0.7513,0.7476,0.7445,0.74,0.7332,0.7268,0.7195,0.7174,0.7141,0.7093,0.7091,0.7074,0.7063,0.7057,0.7045,0.7041,0.7087,0.7086,0.7086,0.7085,0,0,0.7839,0.7731,0.7722,0.7684,0.7602,0.7559,0.7509,0.744,0.741,0.735,0.7305,0.7222,0.7207,0.7163,0.7124,0.7094,0.7075,0.708,0.7078,0.7081,0.7016,0.7029,0.7025,0.7055,0.7054,0.7053,0.7022,0,0.7816,0.7726,0.7677,0.7607,0.7557,0.7511,0.7467,0.7411,0.7368,0.7318,0.7269,0.7212,0.7196,0.7169,0.7137,0.7084,0.7061,0.7086,0.701,0.7008,0.7029,0.7019,0.7031,0.7005,0.7017,0.7016,0.7016,0,0.7776,0.772,0.7646,0.757,0.7547,0.7509,0.7442,0.7395,0.733,0.7301,0.7253,0.7215,0.7158,0.7154,0.7074,0.7092,0.7058,0.7028,0.7025,0.7015,0.7011,0.7007,0.6996,0.6992,0.7008,0.7009,0.7009,0,0.7793,0.7699,0.7643,0.7612,0.7522,0.7496,0.7457,0.7392,0.7354,0.7295,0.7269,0.7204,0.7168,0.7117,0.7062,0.7064,0.6987,0.6978,0.6959,0.6961,0.6944,0.6946,0.6926,0.6925,0.6925,0.6925,0.6925,0,0.7771,0.7727,0.7649,0.7614,0.7563,0.7508,0.7458,0.7415,0.7358,0.7312,0.7268,0.7226,0.7156,0.7105,0.7061,0.7001,0.6985,0.6959,0.6947,0.6962,0.6965,0.6938,0.6938,0.6924,0.6924,0.6924,0.6925,0,0.7781,0.7727,0.7663,0.7584,0.7563,0.7529,0.746,0.7423,0.7379,0.7322,0.7305,0.7234,0.7172,0.7113,0.7028,0.6999,0.6938,0.6924,0.6961,0.6955,0.6939,0.6941,0.6901,0.6892,0.6898,0.6898,0.6898,0,0.777,0.7736,0.7654,0.7622,0.7584,0.7532,0.7494,0.7437,0.7399,0.7323,0.7295,0.723,0.7174,0.7076,0.7016,0.6951,0.6934,0.6924,0.6923,0.694,0.6932,0.6935,0.6931,0.6925,0.6925,0.6925,0.6926,0,0.7756,0.7732,0.7679,0.7618,0.7574,0.7522,0.7469,0.7444,0.7377,0.7336,0.7273,0.723,0.7146,0.708,0.7009,0.6966,0.6934,0.6927,0.6919,0.6933,0.6955,0.6942,0.6963,0.6927,0.6927,0.6927,0.6927,0.6927,0.7754,0.7721,0.7659,0.7602,0.7557,0.7508,0.747,0.7423,0.737,0.7298,0.7267,0.7203,0.7138,0.7039,0.6997,0.6945,0.6937,0.6926,0.6923,0.6921,0.6924,0.6965,0.6932,0.6931,0.6931,0.6931,0.6931,0,0.7737,0.7695,0.7644,0.7572,0.7527,0.7504,0.7444,0.7407,0.7352,0.7296,0.7243,0.717,0.7107,0.7043,0.6976,0.6947,0.693,0.6931,0.6932,0.6922,0.6934,0.6948,0.6945,0.6945,0.6945,0.6945,0.6945,0.6945,0.7723,0.7666,0.7635,0.7555,0.7512,0.7451,0.7419,0.7373,0.7328,0.725,0.7198,0.7158,0.7098,0.7027,0.6967,0.695,0.6927,0.6931,0.691,0.6922,0.6921,0.6921,0.6933,0.6927,0.6927,0.6901,0.6901,0.6901]}]]